Time,TemperatureF,DewpointF,PressureIn,WindDirection,WindDirectionDegrees,WindSpeedMPH,WindSpeedGustMPH,Humidity,HourlyPrecipIn,Conditions,Clouds,dailyrainin,SoftwareType,DateUTC
2015-09-03 00:05:00,72.0,69.5,29.95,SW,232,0.0,0.0,92,0.00,,,0.00,Wunderground v.1.15,2015-09-03 04:05:00,
2015-09-03 00:10:00,71.8,69.3,29.95,SW,232,0.0,0.0,92,0.00,,,0.00,Wunderground v.1.15,2015-09-03 04:10:00,
2015-09-03 00:15:00,71.6,69.2,29.95,SW,232,0.0,0.0,92,0.00,,,0.00,Wunderground v.1.15,2015-09-03 04:15:00,
2015-09-03 00:20:00,71.4,69.3,29.95,SW,232,0.0,0.0,93,0.00,,,0.00,Wunderground v.1.15,2015-09-03 04:20:00,
2015-09-03 00:25:00,71.5,69.4,29.95,SW,232,0.0,0.0,93,0.00,,,0.00,Wunderground v.1.15,2015-09-03 04:25:00,
2015-09-03 00:30:00,71.4,69.3,29.95,SW,232,0.0,0.0,93,0.00,,,0.00,Wunderground v.1.15,2015-09-03 04:30:00,
2015-09-03 00:40:00,71.2,69.1,29.95,SW,231,0.0,0.0,93,0.00,,,0.00,Wunderground v.1.15,2015-09-03 04:40:00,
2015-09-03 00:45:00,71.2,69.4,29.95,SW,232,0.0,0.0,94,0.00,,,0.00,Wunderground v.1.15,2015-09-03 04:45:00,
2015-09-03 00:50:00,71.2,69.4,29.95,NNE,30,0.0,0.0,94,0.00,,,0.00,Wunderground v.1.15,2015-09-03 04:50:00,
2015-09-03 01:00:00,71.9,69.8,29.95,NE,40,0.0,0.0,93,0.00,,,0.00,Wunderground v.1.15,2015-09-03 05:00:00,
2015-09-03 01:05:00,72.1,69.6,29.95,West,266,0.0,0.0,92,0.00,,,0.00,Wunderground v.1.15,2015-09-03 05:05:00,
2015-09-03 01:15:00,72.0,69.2,29.95,SW,236,0.0,0.0,91,0.00,,,0.00,Wunderground v.1.15,2015-09-03 05:15:00,
2015-09-03 01:20:00,71.7,68.9,29.95,North,10,0.0,0.0,91,0.00,,,0.00,Wunderground v.1.15,2015-09-03 05:20:00,
2015-09-03 01:25:00,71.6,69.2,29.94,ENE,57,0.0,0.0,92,0.00,,,0.00,Wunderground v.1.15,2015-09-03 05:25:00,
2015-09-03 01:30:00,71.6,69.2,29.94,ENE,57,0.0,0.0,92,0.00,,,0.00,Wunderground v.1.15,2015-09-03 05:30:00,
2015-09-03 01:35:00,71.4,69.0,29.95,ENE,57,0.0,0.0,92,0.00,,,0.00,Wunderground v.1.15,2015-09-03 05:35:00,
2015-09-03 01:40:00,71.3,68.9,29.95,ENE,57,0.0,0.0,92,0.00,,,0.00,Wunderground v.1.15,2015-09-03 05:40:00,
2015-09-03 01:45:00,71.2,68.8,29.94,West,266,0.0,0.0,92,0.00,,,0.00,Wunderground v.1.15,2015-09-03 05:45:00,
2015-09-03 01:50:00,71.0,68.6,29.94,WSW,248,0.0,0.0,92,0.00,,,0.00,Wunderground v.1.15,2015-09-03 05:50:00,
2015-09-03 02:00:00,70.5,68.4,29.94,WSW,248,0.0,0.0,93,0.00,,,0.00,Wunderground v.1.15,2015-09-03 06:00:00,
2015-09-03 02:05:00,70.3,68.2,29.94,WSW,249,0.0,0.0,93,0.00,,,0.00,Wunderground v.1.15,2015-09-03 06:05:00,
2015-09-03 02:10:00,70.4,68.6,29.93,NE,34,0.0,0.0,94,0.00,,,0.00,Wunderground v.1.15,2015-09-03 06:10:00,
2015-09-03 02:15:00,70.4,68.6,29.93,NE,34,0.0,0.0,94,0.00,,,0.00,Wunderground v.1.15,2015-09-03 06:15:00,
2015-09-03 02:20:00,70.3,68.5,29.93,NE,34,0.0,0.0,94,0.00,,,0.00,Wunderground v.1.15,2015-09-03 06:20:00,
2015-09-03 02:25:00,70.2,68.4,29.93,NE,34,0.0,0.0,94,0.00,,,0.00,Wunderground v.1.15,2015-09-03 06:25:00,
2015-09-03 02:30:00,70.2,68.7,29.93,NE,34,0.0,0.0,95,0.00,,,0.00,Wunderground v.1.15,2015-09-03 06:30:00,
2015-09-03 02:40:00,70.1,68.6,29.93,NE,34,0.0,0.0,95,0.00,,,0.00,Wunderground v.1.15,2015-09-03 06:40:00,
2015-09-03 02:50:00,69.8,68.3,29.93,NE,34,0.0,0.0,95,0.00,,,0.00,Wunderground v.1.15,2015-09-03 06:50:00,
2015-09-03 02:55:00,69.7,68.2,29.93,NE,34,0.0,0.0,95,0.00,,,0.00,Wunderground v.1.15,2015-09-03 06:55:00,
2015-09-03 03:00:00,69.7,68.2,29.93,NE,34,0.0,0.0,95,0.00,,,0.00,Wunderground v.1.15,2015-09-03 07:00:00,
2015-09-03 03:05:00,69.7,68.2,29.94,NE,34,0.0,0.0,95,0.00,,,0.00,Wunderground v.1.15,2015-09-03 07:05:00,
2015-09-03 03:10:00,69.7,68.2,29.93,NE,34,0.0,0.0,95,0.00,,,0.00,Wunderground v.1.15,2015-09-03 07:10:00,
2015-09-03 03:15:00,69.5,68.0,29.94,NE,34,0.0,0.0,95,0.00,,,0.00,Wunderground v.1.15,2015-09-03 07:15:00,
2015-09-03 03:20:00,69.4,67.9,29.94,NE,34,0.0,0.0,95,0.00,,,0.00,Wunderground v.1.15,2015-09-03 07:20:00,
2015-09-03 03:30:00,69.4,68.2,29.93,NE,34,0.0,0.0,96,0.00,,,0.00,Wunderground v.1.15,2015-09-03 07:30:00,
2015-09-03 03:35:00,69.5,68.3,29.94,NE,34,0.0,0.0,96,0.00,,,0.00,Wunderground v.1.15,2015-09-03 07:35:00,
2015-09-03 03:40:00,69.5,68.3,29.94,NE,34,0.0,0.0,96,0.00,,,0.00,Wunderground v.1.15,2015-09-03 07:40:00,
2015-09-03 03:45:00,69.4,68.2,29.93,NE,34,0.0,0.0,96,0.00,,,0.00,Wunderground v.1.15,2015-09-03 07:45:00,
2015-09-03 03:55:00,69.3,68.1,29.93,NE,34,0.0,0.0,96,0.00,,,0.00,Wunderground v.1.15,2015-09-03 07:55:00,
2015-09-03 04:00:00,69.3,68.1,29.94,NE,34,0.0,0.0,96,0.00,,,0.00,Wunderground v.1.15,2015-09-03 08:00:00,
2015-09-03 04:10:00,69.5,68.3,29.93,NE,34,0.0,0.0,96,0.00,,,0.00,Wunderground v.1.15,2015-09-03 08:10:00,
2015-09-03 04:15:00,69.6,68.4,29.93,NE,34,0.0,0.0,96,0.00,,,0.00,Wunderground v.1.15,2015-09-03 08:15:00,
2015-09-03 04:20:00,69.5,68.3,29.93,NE,34,0.0,0.0,96,0.00,,,0.00,Wunderground v.1.15,2015-09-03 08:20:00,
2015-09-03 04:30:00,69.3,68.1,29.93,NE,34,0.0,0.0,96,0.00,,,0.00,Wunderground v.1.15,2015-09-03 08:30:00,
2015-09-03 04:35:00,69.2,68.0,29.93,NE,34,0.0,0.0,96,0.00,,,0.00,Wunderground v.1.15,2015-09-03 08:35:00,
2015-09-03 04:40:00,69.2,68.0,29.93,NE,34,0.0,0.0,96,0.00,,,0.00,Wunderground v.1.15,2015-09-03 08:40:00,
2015-09-03 04:50:00,68.9,67.7,29.93,NE,34,0.0,0.0,96,0.00,,,0.00,Wunderground v.1.15,2015-09-03 08:50:00,
2015-09-03 04:55:00,68.8,67.6,29.93,NE,34,0.0,0.0,96,0.00,,,0.00,Wunderground v.1.15,2015-09-03 08:55:00,
2015-09-03 05:05:00,68.7,67.5,29.92,NE,34,0.0,0.0,96,0.00,,,0.00,Wunderground v.1.15,2015-09-03 09:05:00,
2015-09-03 05:10:00,68.6,67.4,29.93,NE,34,0.0,0.0,96,0.00,,,0.00,Wunderground v.1.15,2015-09-03 09:10:00,
2015-09-03 05:15:00,68.4,67.2,29.93,NE,34,0.0,0.0,96,0.00,,,0.00,Wunderground v.1.15,2015-09-03 09:15:00,
2015-09-03 05:20:00,68.3,67.1,29.93,NE,34,0.0,0.0,96,0.00,,,0.00,Wunderground v.1.15,2015-09-03 09:20:00,
2015-09-03 05:30:00,68.1,67.2,29.93,NNE,33,0.0,0.0,97,0.00,,,0.00,Wunderground v.1.15,2015-09-03 09:30:00,
2015-09-03 05:35:00,68.1,67.2,29.94,NE,34,0.0,0.0,97,0.00,,,0.00,Wunderground v.1.15,2015-09-03 09:35:00,
2015-09-03 05:40:00,68.1,68.1,29.94,North,1,0.0,0.0,100,0.00,,,0.00,Wunderground v.1.15,2015-09-03 09:40:00,
2015-09-03 05:45:00,68.1,68.1,29.94,North,1,0.0,0.0,100,0.00,,,0.00,Wunderground v.1.15,2015-09-03 09:45:00,
2015-09-03 05:50:00,-999.9,-99.9,29.94,North,32767,-999.9,0.0,255,-99.99,,,0.00,Wunderground v.1.15,2015-09-03 09:50:00,
2015-09-03 05:55:00,-999.9,-99.9,29.94,North,32767,-999.9,0.0,255,-99.99,,,0.00,Wunderground v.1.15,2015-09-03 09:55:00,
2015-09-03 06:00:00,-999.9,-99.9,29.94,North,32767,-999.9,0.0,255,-99.99,,,0.00,Wunderground v.1.15,2015-09-03 10:00:00,
2015-09-03 06:10:00,-999.9,-99.9,29.94,North,32767,-999.9,0.0,255,-99.99,,,0.00,Wunderground v.1.15,2015-09-03 10:10:00,
2015-09-03 06:15:00,-999.9,-99.9,29.95,North,32767,-999.9,0.0,255,-99.99,,,0.00,Wunderground v.1.15,2015-09-03 10:15:00,
2015-09-03 06:20:00,-999.9,-99.9,29.95,North,32767,-999.9,0.0,255,-99.99,,,0.00,Wunderground v.1.15,2015-09-03 10:20:00,
2015-09-03 06:25:00,-999.9,-99.9,29.94,North,32767,-999.9,0.0,255,-99.99,,,0.00,Wunderground v.1.15,2015-09-03 10:25:00,
2015-09-03 06:30:00,-999.9,-99.9,29.95,North,32767,-999.9,0.0,255,-99.99,,,0.00,Wunderground v.1.15,2015-09-03 10:30:00,
2015-09-03 06:35:00,-999.9,-99.9,29.95,North,32767,-999.9,0.0,255,-99.99,,,0.00,Wunderground v.1.15,2015-09-03 10:35:00,
2015-09-03 06:40:00,-999.9,-99.9,29.95,North,32767,-999.9,0.0,255,-99.99,,,0.00,Wunderground v.1.15,2015-09-03 10:40:00,
2015-09-03 06:45:00,-999.9,-99.9,29.96,North,32767,-999.9,0.0,255,-99.99,,,0.00,Wunderground v.1.15,2015-09-03 10:45:00,
2015-09-03 06:50:00,-999.9,-99.9,29.96,North,32767,-999.9,0.0,255,-99.99,,,0.00,Wunderground v.1.15,2015-09-03 10:50:00,
2015-09-03 07:00:00,-999.9,-99.9,29.95,North,32767,-999.9,0.0,255,-99.99,,,0.00,Wunderground v.1.15,2015-09-03 11:00:00,
2015-09-03 07:05:00,-999.9,-99.9,29.95,North,32767,-999.9,0.0,255,-99.99,,,0.00,Wunderground v.1.15,2015-09-03 11:05:00,
2015-09-03 07:10:00,-999.9,-99.9,29.95,North,32767,-999.9,0.0,255,-99.99,,,0.00,Wunderground v.1.15,2015-09-03 11:10:00,
2015-09-03 07:15:00,-999.9,-99.9,29.96,North,32767,-999.9,0.0,255,-99.99,,,0.00,Wunderground v.1.15,2015-09-03 11:15:00,
2015-09-03 07:20:00,-999.9,-99.9,29.96,North,32767,-999.9,0.0,255,-99.99,,,0.00,Wunderground v.1.15,2015-09-03 11:20:00,
2015-09-03 07:25:00,-999.9,-99.9,29.96,North,32767,-999.9,0.0,255,-99.99,,,0.00,Wunderground v.1.15,2015-09-03 11:25:00,
2015-09-03 07:35:00,-999.9,-99.9,29.96,North,32767,-999.9,0.0,255,-99.99,,,0.00,Wunderground v.1.15,2015-09-03 11:35:00,
2015-09-03 07:40:00,-999.9,-99.9,29.96,North,32767,-999.9,0.0,255,-99.99,,,0.00,Wunderground v.1.15,2015-09-03 11:40:00,
2015-09-03 07:45:00,-999.9,-99.9,29.96,North,32767,-999.9,0.0,255,-99.99,,,0.00,Wunderground v.1.15,2015-09-03 11:45:00,
2015-09-03 07:50:00,68.4,67.5,29.96,WSW,255,0.0,0.0,97,0.00,,,0.00,Wunderground v.1.15,2015-09-03 11:50:00,
2015-09-03 07:55:00,68.4,67.5,29.96,WSW,255,0.0,0.0,97,0.00,,,0.00,Wunderground v.1.15,2015-09-03 11:55:00,
2015-09-03 08:00:00,68.6,67.7,29.96,WSW,254,0.0,0.0,97,0.00,,,0.00,Wunderground v.1.15,2015-09-03 12:00:00,
2015-09-03 08:05:00,69.1,68.2,29.96,WSW,254,0.0,0.0,97,0.00,,,0.00,Wunderground v.1.15,2015-09-03 12:05:00,
2015-09-03 08:15:00,69.8,68.9,29.96,WSW,255,0.0,0.0,97,0.00,,,0.00,Wunderground v.1.15,2015-09-03 12:15:00,
2015-09-03 08:20:00,70.7,69.8,29.96,WSW,255,0.0,0.0,97,0.00,,,0.00,Wunderground v.1.15,2015-09-03 12:20:00,
2015-09-03 08:25:00,71.2,70.3,29.96,WSW,255,0.0,0.0,97,0.00,,,0.00,Wunderground v.1.15,2015-09-03 12:25:00,
2015-09-03 08:30:00,71.7,70.8,29.96,North,359,0.0,0.0,97,0.00,,,0.00,Wunderground v.1.15,2015-09-03 12:30:00,
2015-09-03 08:35:00,72.0,70.8,29.95,North,4,0.0,0.0,96,0.00,,,0.00,Wunderground v.1.15,2015-09-03 12:35:00,
2015-09-03 08:40:00,72.6,71.1,29.95,North,4,0.0,0.0,95,0.00,,,0.00,Wunderground v.1.15,2015-09-03 12:40:00,
2015-09-03 08:45:00,73.0,71.2,29.95,North,1,0.0,0.0,94,0.00,,,0.00,Wunderground v.1.15,2015-09-03 12:45:00,
2015-09-03 08:50:00,73.9,71.7,29.95,North,6,0.0,0.0,93,0.00,,,0.00,Wunderground v.1.15,2015-09-03 12:50:00,
2015-09-03 09:00:00,75.4,71.9,29.95,South,169,0.0,2.0,89,0.00,,,0.00,Wunderground v.1.15,2015-09-03 13:00:00,
2015-09-03 09:05:00,75.8,71.3,29.95,SE,124,1.0,2.0,86,0.00,,,0.00,Wunderground v.1.15,2015-09-03 13:05:00,
2015-09-03 09:10:00,76.0,71.5,29.95,SE,137,1.0,1.0,86,0.00,,,0.00,Wunderground v.1.15,2015-09-03 13:10:00,
2015-09-03 09:15:00,76.7,71.5,29.95,SSE,160,1.0,1.0,84,0.00,,,0.00,Wunderground v.1.15,2015-09-03 13:15:00,
2015-09-03 09:20:00,77.4,71.8,29.95,South,169,1.0,3.0,83,0.00,,,0.00,Wunderground v.1.15,2015-09-03 13:20:00,
2015-09-03 09:25:00,77.7,72.1,29.95,ESE,113,1.0,3.0,83,0.00,,,0.00,Wunderground v.1.15,2015-09-03 13:25:00,
2015-09-03 09:30:00,78.8,72.8,29.95,ESE,113,0.0,0.0,82,0.00,,,0.00,Wunderground v.1.15,2015-09-03 13:30:00,
2015-09-03 09:35:00,78.8,71.7,29.95,SE,143,1.0,1.0,79,0.00,,,0.00,Wunderground v.1.15,2015-09-03 13:35:00,
2015-09-03 09:45:00,79.1,72.4,29.95,East,93,1.0,2.0,80,0.00,,,0.00,Wunderground v.1.15,2015-09-03 13:45:00,
2015-09-03 09:50:00,79.3,71.5,29.94,SE,124,2.0,2.0,77,0.00,,,0.00,Wunderground v.1.15,2015-09-03 13:50:00,
2015-09-03 09:55:00,79.7,71.8,29.94,ESE,118,2.0,2.0,77,0.00,,,0.00,Wunderground v.1.15,2015-09-03 13:55:00,
2015-09-03 10:00:00,80.1,72.6,29.94,SSE,150,1.0,1.0,78,0.00,,,0.00,Wunderground v.1.15,2015-09-03 14:00:00,